FENGYUN 1C DEB, 31281

Orbit data source: Space-Track

FENGYUN 1C DEB, 31281 is space debris in SSO originally from a launch on Mon, 10 May 1999 UTC launched from the Taiyaun Space Center, China (TSC). Fengyun 1C debris stems from the Chinese weather satellite Fengyun-1C, which was intentionally destroyed by a Chinese anti-satellite missile in 2007. This event dramatically increased the amount of space debris, with thousands of trackable fragments posing hazards to satellites and human spaceflight. The Fengyun 1C debris cloud has become a focal point in discussions about space sustainability and the need for international regulations to prevent the creation of new debris.

Loading next visibility...
Identifier
31281, 1999-025BNP
Orbit
SSO
Country
Flag of CNCN / PRC
Related business
Manufacturer
Unknown
Mission
Spacecraft
Bus & Motor
Unknown
Mass
Unknown
Launch date (UTC)
1999-05-10 (27 years ago)
Launch vehicle
Unknown
Launch site
Taiyaun Space Center, China (TSC)
Object type
Payload
Rocket body
Debris
Shape & HBR
Unknown shape, 0.1 m
Radar Cross Section
Small (<0.1 m²)

Expand to show TLE details & history
Last TLE update: 11 hours ago

TLE from 11 hours ago
0 FENGYUN 1C DEB
1 31281U 99025BNP 26104.88144486  .00019488  00000-0  62172-3 0  9997
2 31281  98.3965 259.2536 0090047  30.6600 329.9855 15.28620668 15735
Epoch: 2026-04-14T21:09Z
TLE epoch observation values (Epoch: 2026-04-14T21:09:16.835Z)
Latitude
-0.00004°
Longitude
98.88213°
Altitude
429.662 km
Speed
7.683 km/s
True Right ascension
17h 17m 00s
True Declination
0° 00' 00"
Sunlit
Object was in full shadow at epoch
Visualization orbit readout
Latitude
Unknown
Longitude
Unknown
Altitude
Unknown
Speed
Unknown
Apparent Right ascension
Unknown
Apparent Declination
Unknown
Sunlit
N/A
Visualization observer readout
Local Sidereal Time
14:28:58
Azimuth
Unknown
Elevation
Unknown
Doppler factor
Unknown
Orbital elements
Apogee altitude
538.662 km
Perigee altitude
415.206 km
Semi-major axis
6,855.071 km
Eccentricity
0.009
Inclination
98.3965°
RAAN
259.2536°
Arg. of periapsis
30.66°
True anomaly
329.46427°
Mean anomaly
329.9855°
Eccentric anomaly
329.7254°
Mean motion
3.82406 °/min
Orbital period
94.14 mins
BSTAR
0.00062172
Loading maneuver chart data...
Computing Atmospheric mass density...

Documentation

Showing up to 5 results
|